Das Wetter in  D-61279 Heinzenberg / Taunus





Wetter Minimum- & Maximum-Werte im März 2013

Standort: Heinzenberg / Taunus - Höhe 297 m         8° 24' 1" Ost 50° 21' 51" Nord
(   3-stündige Aktualisierung    letzte Aktualisierung um 20:46 am 31.03.2013  )


Messgrösse

Minimum

Maximum

Durchschnitt

Temperatur West /
Luftfeuchte West
Anklicken für Monats-Diagramm

-11,9 °C

07:23
15.03.2013

34 %

12:13
16.03.2013

15,9 °C

16:09
06.03.2013

90 %

20:22
20.03.2013

Temp

1,0 °C

Feuchte

71 %

Temperatur Ost /
Luftfeuchte Ost
Anklicken für Monats-Diagramm

-11,8 °C

07:13
15.03.2013

--

--
--

17,4 °C

16:19
06.03.2013

--

--
--

1,2 °C

--

Luftdruck Anklicken für Monats-Diagramm

993,3 hPa

14:00
18.03.2013

1026,5 hPa

06:26
02.03.2013

1010,0 hPa

Taupunkt

-14,6 °C

07:28
15.03.2013

8,4 °C

14:41
08.03.2013

-3,9 °C

Windchill
( gefühlte Temperatur )

-18,6 °C

07:56
25.03.2013

15,7 °C

16:24
06.03.2013

-1,6 °C

Windgeschwindigkeit /
Windrichtung
Anklicken für Monats-Diagramm

---

41,6 km/h / W

14:16
19.03.2013

7,0 km/h
NO

Helligkeit /
Sonnenschein
Anklicken für Monats-Diagramm
Anklicken für Monats-Diagramm

Sonnenschein:

97:05 Stunden

Max: 9:30 Std am
04.03.2013

88,2 klux

13:11
19.03.2013

20,4 klux

Solarstrahlung Anklicken für Monats-Diagramm

---

603 W/m²

13:11
19.03.2013

151 W/m²

Regenmenge
    März 2013
Anklicken für Monats-Diagramm

Insgesamt 23,1 l/m²

in 47:08 Stunden
an 16 Tagen

8,4 l/m²

11:17
20.03.2013

Gesamtmenge

23,1 l/m²

Regen-Tage
    März 2013
Anklicken für Monats-Diagramm

>   0 mm/Tag

>   2 mm/Tag

>   5 mm/Tag

> 10 mm/Tag

> 20 mm/Tag

16 Tage     
4 Tage     
2 Tage     
0 Tage     
0 Tage     

Eisige Tage März 2013 / 2012

Tmin ≤ -10°C     

  1 Tag

/

0 Tage

Eistage März 2013 / 2012

Tmax <     0°C     

2 Tage

/

0 Tage

Frosttage März 2013 / 2012

Tmin ≤     0°C     

27 Tage

/

9 Tage

Kalte Tage März 2013 / 2012

Tmax <   10°C     

25 Tage

/

11 Tage

Warme Tage März 2013 / 2012

Tmax ≥   20°C     

0 Tage

/

8 Tage

Sommertage März 2013 / 2012

Tmax ≥   25°C     

0 Tage

/

0 Tage

Heisse Tage März 2013 / 2012

Tmax ≥   30°C     

0 Tage

/

0 Tage


Monatsdiagramm März 2013

Die Kurven zeigen den Durchschnittswert des jeweiligen Tages an


Wetter-Monatsübersicht März 2013
Datum
  Temperatur
   Luftdruck
   Wind
  Regen
   Luftfeuchte
   Helligkeit

Sonnen-
schein

Ø
Temp.

Min.
Temp.

Max.
Temp.

Ø
Luftdruck

Min.
Luftdruck

Max.
Luftdruck

Ø-Geschw.
Haupt-Richtg.

Max.
Wind

Menge /
Dauer

Ø
Feuchte

Min.
Feuchte

Max.
Feuchte

Ø
Helligkeit

Max.
Helligkeit

1.
März
1,3 °C-0,2 °C
07:10
3,5 °C
15:35
1025,1 hPa1023,9 hPa
15:35
1026,4 hPa
23:51
2,9 km/h
NW
17,1 km/h
22:15  
---
81 %75 %
17:45
86 %
03:40
8,9 klux24,9 klux
12:10
--- 
2.
März
1,9 °C-2,4 °C
23:57
7,5 °C
16:01
1025,0 hPa1022,4 hPa
16:01
1026,5 hPa
06:26
3,5 km/h
O-SO
15,4 km/h
09:06  
---
68 %51 %
16:01
77 %
00:01
30,5 klux54,9 klux
12:41
7:55 Std 
3.
März
0,0 °C-3,6 °C
03:22
4,5 °C
14:02
1024,3 hPa1022,8 hPa
15:32
1025,5 hPa
08:57
1,0 km/h
NW
14,7 km/h
14:12  
---
76 %69 %
16:27
82 %
04:12
14,2 klux39,4 klux
12:52
5 Min 
4.
März
1,8 °C-4,6 °C
07:23
10,7 °C
17:13
1020,8 hPa1016,8 hPa
17:13
1024,8 hPa
02:03
6,0 km/h
O-SO
31,2 km/h
12:38  
---
70 %46 %
16:48
86 %
08:28
32,8 klux55,5 klux
12:48
9:30 Std 
5.
März
3,0 °C-3,7 °C
07:18
12,7 °C
16:18
1012,5 hPa1008,3 hPa
16:18
1017,3 hPa
01:28
2,3 km/h
SO
14,5 km/h
10:48  
---
68 %47 %
16:23
81 %
07:53
31,7 klux55,3 klux
12:38
9:00 Std 
6.
März
4,7 °C-2,6 °C
05:14
15,9 °C
16:09
1004,8 hPa1000,6 hPa
16:09
1010,0 hPa
00:04
2,7 km/h
SO
17,6 km/h
15:44  
---
66 %41 %
15:24
82 %
06:39
30,8 klux57,8 klux
12:44
8:00 Std 
7.
März
7,2 °C2,1 °C
00:10
15,5 °C
15:45
1001,0 hPa998,6 hPa
15:45
1002,3 hPa
00:10
1,3 km/h
SO
11,2 km/h
17:05  
3,6 l/m²
3:15 Stunden
69 %50 %
15:05
82 %
23:36
21,0 klux80,6 klux
13:40
2:20 Std 
8.
März
8,9 °C3,8 °C
07:56
15,4 °C
14:41
1000,6 hPa998,6 hPa
14:41
1002,9 hPa
23:47
1,6 km/h
O
16,6 km/h
11:11  
---
50 Minuten
78 %62 %
14:36
89 %
09:01
24,2 klux63,7 klux
13:41
4:00 Std 
9.
März
8,4 °C4,9 °C
04:52
12,6 °C
15:27
1000,9 hPa1000,0 hPa
15:27
1001,9 hPa
03:27
8,8 km/h
W-SW
31,6 km/h
16:27  
0,6 l/m²
1:05 Stunden
78 %62 %
15:57
89 %
07:17
10,0 klux51,5 klux
15:22
15 Min 
10.
März
4,1 °C-0,6 °C
23:54
8,3 °C
00:03
1000,1 hPa998,5 hPa
10:23
1002,7 hPa
23:54
12,6 km/h
W-SW
30,5 km/h
09:48  
0,2 l/m²
2:55 Stunden
81 %72 %
10:23
88 %
20:43
10,1 klux40,6 klux
09:18
1:15 Std 
11.
März
-2,6 °C-3,8 °C
22:45
-0,6 °C
00:04
1004,7 hPa1002,7 hPa
00:04
1005,2 hPa
22:45
6,8 km/h
O-NO
19,7 km/h
07:49  
0,3 l/m²
1:06 Stunden
82 %78 %
15:49
86 %
00:04
5,9 klux15,8 klux
13:44
--- 
12.
März
-4,6 °C-5,5 °C
21:40
-2,9 °C
13:45
1002,8 hPa1000,9 hPa
14:25
1005,2 hPa
01:15
7,1 km/h
NO
21,2 km/h
18:35  
5,6 l/m²
11:41 Stunden
82 %79 %
14:30
83 %
01:35
11,2 klux34,0 klux
12:55
--- 
13.
März
-3,4 °C-7,1 °C
07:01
3,4 °C
17:11
1006,0 hPa1003,4 hPa
03:46
1010,8 hPa
23:57
2,9 km/h
W-NW
17,1 km/h
14:11  
1,1 l/m²
1:40 Stunden
72 %51 %
16:21
83 %
00:01
33,8 klux79,5 klux
11:21
7:40 Std 
14.
März
-4,3 °C-9,9 °C
05:27
1,7 °C
12:27
1011,9 hPa1010,7 hPa
12:27
1014,7 hPa
21:42
3,3 km/h
NW
20,2 km/h
13:42  
0,3 l/m²
2:10 Stunden
78 %62 %
11:57
83 %
21:52
23,9 klux78,8 klux
14:12
3:10 Std 
15.
März
-3,6 °C-11,9 °C
07:23
3,9 °C
16:43
1016,9 hPa1014,6 hPa
00:03
1018,8 hPa
07:23
4,3 km/h
W
19,5 km/h
13:43  
---
68 %47 %
16:43
82 %
08:33
34,9 klux66,2 klux
12:38
8:54 Std 
16.
März
2,8 °C-0,6 °C
00:18
7,1 °C
13:53
1013,2 hPa1008,4 hPa
21:33
1017,2 hPa
00:18
18,1 km/h
O-SO
40,3 km/h
22:49  
---
50 %34 %
12:13
63 %
00:03
29,2 klux64,7 klux
13:18
5:50 Std 
17.
März
1,5 °C-0,5 °C
07:49
3,2 °C
23:10
1002,2 hPa996,0 hPa
23:15
1008,5 hPa
00:34
21,1 km/h
O-SO
39,7 km/h
00:09  
2,3 l/m²
4:25 Stunden
75 %54 %
00:04
86 %
20:54
8,5 klux28,0 klux
13:04
--- 
18.
März
4,4 °C0,1 °C
23:51
7,9 °C
13:50
995,3 hPa993,3 hPa
14:00
997,2 hPa
07:20
2,5 km/h
W-SW
17,0 km/h
01:10  
---
74 %56 %
16:25
87 %
00:10
18,5 klux42,6 klux
13:25
--- 
19.
März
2,0 °C-2,3 °C
04:16
7,6 °C
16:31
999,2 hPa995,4 hPa
00:01
1002,4 hPa
23:52
8,8 km/h
W
41,6 km/h
14:16  
0,8 l/m²
3:10 Stunden
79 %67 %
12:11
87 %
10:16
18,7 klux88,2 klux
13:11
1:36 Std 
20.
März
2,1 °C-0,2 °C
23:43
6,1 °C
15:52
1003,9 hPa1001,2 hPa
10:47
1013,0 hPa
23:53
10,3 km/h
W
41,2 km/h
20:37  
8,4 l/m²
10:35 Stunden
86 %77 %
15:57
90 %
20:22
9,6 klux48,5 klux
14:57
10 Min 
21.
März
0,2 °C-1,6 °C
23:53
1,7 °C
13:23
1018,0 hPa1013,0 hPa
00:03
1020,5 hPa
23:53
6,9 km/h
NW
22,6 km/h
04:18  
---
15 Minuten
83 %75 %
19:53
89 %
04:08
7,3 klux24,6 klux
11:33
--- 
22.
März
0,8 °C-3,0 °C
03:03
6,6 °C
14:58
1017,6 hPa1014,2 hPa
16:03
1020,5 hPa
00:53
6,4 km/h
O
22,6 km/h
14:18  
---
72 %56 %
15:03
85 %
04:48
26,4 klux83,6 klux
12:43
3:20 Std 
23.
März
-0,8 °C-2,7 °C
00:14
3,9 °C
15:54
1016,2 hPa1014,5 hPa
15:54
1017,5 hPa
23:30
13,8 km/h
O
37,2 km/h
16:29  
---
65 %57 %
15:54
72 %
00:04
20,1 klux57,3 klux
12:34
1:00 Std 
24.
März
-1,5 °C-5,3 °C
06:30
4,3 °C
15:20
1014,9 hPa1012,4 hPa
15:20
1017,5 hPa
00:05
14,4 km/h
NO
37,2 km/h
16:40  
---
51 %39 %
15:05
62 %
06:45
26,2 klux71,9 klux
12:45
3:05 Std 
25.
März
-2,3 °C-5,7 °C
06:41
1,2 °C
14:41
1013,7 hPa1012,0 hPa
17:41
1014,8 hPa
06:41
15,0 km/h
NO
30,7 km/h
12:26  
---
57 %53 %
00:01
64 %
06:11
18,2 klux50,0 klux
10:46
1:30 Std 
26.
März
-1,4 °C-5,6 °C
06:57
3,7 °C
16:22
1012,2 hPa1010,4 hPa
16:22
1013,5 hPa
01:32
13,6 km/h
NO
32,0 km/h
10:22  
---
54 %41 %
13:02
66 %
06:52
31,2 klux59,9 klux
12:02
6:25 Std 
27.
März
-0,9 °C-7,8 °C
06:43
5,7 °C
15:23
1011,3 hPa1008,1 hPa
15:23
1013,6 hPa
01:42
6,5 km/h
SO
28,8 km/h
11:13  
---
55 %41 %
13:04
71 %
08:13
32,4 klux69,0 klux
14:33
7:40 Std 
28.
März
-0,4 °C-5,9 °C
06:34
5,6 °C
13:49
1008,9 hPa1006,2 hPa
15:59
1012,2 hPa
00:44
3,1 km/h
O-NO
21,5 km/h
13:34  
---
1:30 Stunden
65 %53 %
13:04
78 %
23:05
20,9 klux72,3 klux
11:09
2:40 Std 
29.
März
0,0 °C-2,3 °C
04:10
2,8 °C
14:55
1008,1 hPa1006,8 hPa
23:45
1009,1 hPa
06:25
3,5 km/h
NW
18,8 km/h
13:50  
---
50 Minuten
74 %62 %
16:05
83 %
05:30
12,1 klux60,5 klux
13:10
50 Min 
30.
März
0,9 °C-1,1 °C
06:20
3,9 °C
13:20
1007,1 hPa1006,2 hPa
13:20
1010,0 hPa
23:51
4,2 km/h
NO
15,7 km/h
10:20  
---
36 Minuten
68 %56 %
14:25
77 %
02:50
16,2 klux51,2 klux
13:05
40 Min 
31.
März
-0,1 °C-2,6 °C
07:01
3,1 °C
15:21
1011,4 hPa1010,0 hPa
00:01
1013,2 hPa
23:56
2,8 km/h
NO
19,8 km/h
15:36  
---
1:05 Stunden
69 %56 %
16:21
79 %
08:36
12,9 klux54,2 klux
12:41
15 Min 



März
2013

Temperatur

  

Luftdruck

  

Wind

  

Regen

  

Luftfeuchte

  

Helligkeit

Sonnen-
schein

Ø

Min

Max

Ø

Min

Max

Ø

Max

Max

Ø

Min

Max

Ø

Max

Max

1,0 °C

-11,9 °C

07:23 Uhr
15.03.2013

15,9 °C

16:09 Uhr
06.03.2013

1010,0 hPa

993,3 hPa

14:00 Uhr
18.03.2013

1026,5 hPa

06:26 Uhr
02.03.2013

7,0 km/h

NO

41,6 km/h

14:16 Uhr
19.03.2013

8,4 l/m²

10:35 Stunden
20.03.2013

71 %

34 %

12:13 Uhr
16.03.2013

90 %

20:22 Uhr
20.03.2013

20,4 klux

88,2 klux

13:11 Uhr
19.03.2013

9:30 Std

am
04.03.2013

Gesamt

Gesamt

23,1 l/m²

16 Tage
47:08 h

97:05 Std


Wetter-Diagramme März 2013     Heinzenberg / Taunus   
TemperaturLuftfeuchte
SolarstrahlungLuftdruck
HelligkeitSonnenschein
RegenmengeRegendauer
Wind-GeschwindigkeitWind-Richtung